Rome Ciampino, Italy

7:47 AM CEST on April 23, 2017 (GMT +0200)
Ciampino

Weather History for LIRA - December, 2012

Change the Weather History Date:

Friday, December 7, 2012

  Actual Average Record
Temperature  
Mean Temperature 39 °F -  
Max Temperature 50 °F 55 °F 66 °F (2004)
Min Temperature 28 °F 39 °F 28 °F (2012)
Degree Days  
Heating Degree Days 26    
Moisture  
Dew Point 35 °F    
Average Humidity 83    
Maximum Humidity 93    
Minimum Humidity 57    
Precipitation  
Precipitation 0.00 in 0.14 in - ()
Sea Level Pressure  
Sea Level Pressure 29.84 in    
Wind  
Wind Speed 4 mph ()    
Max Wind Speed 14 mph    
Max Gust Speed 22 mph    
Visibility 5.6 miles    
Events Rain    
Averages and records for this station are not official NWS values.
T = Trace of Precipitation, MM = Missing Value Source: Averaged Metar Reports

Daily Weather History Graph

Daily Weather History Graph

Search for Another Location

Airport or City:

Trip Planner

Search our weather history database for the weather conditions in past years. The results will help you decide how hot, cold, wet, or windy it might be!

Date:

Astronomy

Dec. 07, 2012 Rise Set
Actual Time 7:23 AM CET 4:38 PM CET
Civil Twilight 6:52 AM CET 5:10 PM CET
Nautical Twilight 6:17 AM CET 5:45 PM CET
Astronomical Twilight 5:43 AM CET 6:18 PM CET
Moon 12:19 AM CET (12/7) 12:31 PM CET (12/7)
Length of Visible Light 10h 17m
Length of Day
9h 15m
Last Quarter, 41% of the Moon is Illuminated
Dec 7
Last Quarter
Dec 13
New
Dec 20
First Quarter
Dec 28
Full
Jan 5
Last Quarter

Hourly Weather History & Observations

Time (CET) Temp. Windchill Dew Point Humidity Pressure Visibility Wind Dir Wind Speed Gust Speed Precip Events Conditions
12:15 AM 33.8 °F 29.6 °F 30.2 °F 87% 29.89 in 5.0 mi NE 4.6 mph - N/A   Partly Cloudy
12:45 AM 32.0 °F 28.7 °F 30.2 °F 93% 29.89 in 5.0 mi NE 3.5 mph - N/A   Partly Cloudy
1:15 AM 32.0 °F - 30.2 °F 93% 29.92 in 5.0 mi North 1.2 mph - N/A   Partly Cloudy
1:45 AM 30.2 °F - 28.4 °F 93% 29.92 in 6.2 mi North 2.3 mph - N/A   Partly Cloudy
2:15 AM 30.2 °F - 26.6 °F 86% 29.92 in 6.2 mi North 1.2 mph - N/A   Partly Cloudy
2:45 AM 30.2 °F - 26.6 °F 86% 29.92 in 6.2 mi NE 1.2 mph - N/A   Partly Cloudy
3:15 AM 30.2 °F - 26.6 °F 86% 29.92 in 6.2 mi NE 2.3 mph - N/A   Partly Cloudy
3:45 AM 30.2 °F - 28.4 °F 93% 29.92 in 6.2 mi NE 2.3 mph - N/A   Partly Cloudy
4:15 AM 30.2 °F - 28.4 °F 93% 29.92 in 6.2 mi ENE 2.3 mph - N/A   Partly Cloudy
4:45 AM 30.2 °F - 28.4 °F 93% 29.92 in 6.2 mi NNE 2.3 mph - N/A   Partly Cloudy
5:15 AM 30.2 °F 26.7 °F 28.4 °F 93% 29.92 in 6.2 mi NNE 3.5 mph - N/A   Scattered Clouds
5:45 AM 28.4 °F - 26.6 °F 93% 29.92 in 6.2 mi NE 2.3 mph - N/A   Partly Cloudy
6:15 AM 28.4 °F - 26.6 °F 93% 29.92 in 6.2 mi NNE 2.3 mph - N/A   Partly Cloudy
6:45 AM 28.4 °F - 26.6 °F 93% 29.92 in 5.0 mi NNE 2.3 mph - N/A   Partly Cloudy
7:15 AM 28.4 °F 23.3 °F 26.6 °F 93% 29.92 in 5.0 mi NE 4.6 mph - N/A   Partly Cloudy
7:45 AM 28.4 °F 24.6 °F 26.6 °F 93% 29.92 in 5.0 mi NE 3.5 mph - N/A   Partly Cloudy
8:15 AM 28.4 °F - 24.8 °F 86% 29.92 in 5.0 mi NE 2.3 mph - N/A   Partly Cloudy
8:45 AM 30.2 °F - 28.4 °F 93% 29.92 in 6.2 mi NE 2.3 mph - N/A   Partly Cloudy
9:15 AM 32.0 °F - 30.2 °F 93% 29.92 in 6.2 mi NNE 2.3 mph - N/A   Scattered Clouds
9:45 AM 32.0 °F - 30.2 °F 93% 29.92 in 6.2 mi NNE 1.2 mph - N/A   Scattered Clouds
10:15 AM 33.8 °F - 30.2 °F 87% 29.92 in 6.2 mi NNE 1.2 mph - N/A   Scattered Clouds
10:45 AM 37.4 °F - 32.0 °F 81% 29.92 in 6.2 mi Calm Calm - N/A   Mostly Cloudy
11:15 AM 37.4 °F - 32.0 °F 81% 29.92 in 6.2 mi West 2.3 mph - N/A   Light Drizzle
11:45 AM 44.6 °F 38.4 °F 32.0 °F 61% 29.89 in 6.2 mi SSE 12.7 mph - N/A   Light Drizzle
12:15 PM 44.6 °F 38.4 °F 30.2 °F 57% 29.89 in 6.2 mi SE 12.7 mph - N/A   Mostly Cloudy
12:45 PM 46.4 °F 40.7 °F 33.8 °F 62% 29.86 in 6.2 mi SSE 12.7 mph - N/A   Scattered Clouds
1:15 PM 48.2 °F - 37.4 °F 66% 29.86 in 6.2 mi South 9.2 mph - N/A   Scattered Clouds
1:45 PM 48.2 °F - 37.4 °F 66% 29.86 in 6.2 mi SSE 11.5 mph - N/A   Scattered Clouds
2:15 PM 48.2 °F - 37.4 °F 66% 29.83 in 6.2 mi South 11.5 mph - N/A   Scattered Clouds
2:45 PM 48.2 °F - 37.4 °F 66% 29.83 in 6.2 mi South 10.4 mph - N/A   Scattered Clouds
3:15 PM 48.2 °F - 37.4 °F 66% 29.83 in 6.2 mi South 8.1 mph - N/A   Scattered Clouds
3:45 PM 48.2 °F - 37.4 °F 66% 29.83 in 6.2 mi South 5.8 mph - N/A   Mostly Cloudy
4:15 PM 48.2 °F - 37.4 °F 66% 29.80 in 6.2 mi South 5.8 mph - N/A   Mostly Cloudy
4:45 PM 46.4 °F 41.5 °F 39.2 °F 76% 29.80 in 6.2 mi SSE 10.4 mph - N/A Rain Light Rain
5:15 PM 46.4 °F 43.5 °F 41.0 °F 81% 29.80 in 6.2 mi SSE 5.8 mph - N/A Rain Light Rain
5:45 PM 46.4 °F 42.9 °F 41.0 °F 81% 29.77 in 6.2 mi SSE 6.9 mph - N/A Rain Light Rain
6:15 PM 46.4 °F 41.5 °F 42.8 °F 87% 29.77 in 5.0 mi South 10.4 mph - N/A Rain Light Rain
6:45 PM 46.4 °F - 42.8 °F 87% 29.77 in 4.3 mi WSW 2.3 mph - N/A Rain Light Rain
7:15 PM 46.4 °F 41.9 °F 44.6 °F 93% 29.74 in 4.3 mi SSE 9.2 mph - N/A Rain Light Rain
7:45 PM 46.4 °F 44.3 °F 44.6 °F 93% 29.74 in 4.3 mi SSE 4.6 mph - N/A Rain Light Rain
8:15 PM 46.4 °F 42.9 °F 44.6 °F 93% 29.71 in 4.3 mi South 6.9 mph - N/A Rain Light Rain
8:45 PM 46.4 °F 40.7 °F 44.6 °F 93% 29.71 in 3.1 mi SSE 12.7 mph - N/A Rain Light Rain
9:15 PM 48.2 °F - 44.6 °F 87% 29.68 in 3.1 mi South 13.8 mph - N/A Rain Light Rain
9:45 PM 48.2 °F - 44.6 °F 87% 29.68 in 4.3 mi SSE 12.7 mph - N/A Rain Light Rain
10:15 PM 48.2 °F - 44.6 °F 87% 29.65 in 6.2 mi South 11.5 mph - N/A Rain Light Rain
10:45 PM 48.2 °F - 44.6 °F 87% 29.65 in 6.2 mi South 6.9 mph - N/A   Scattered Clouds
11:15 PM 50.0 °F - 41.0 °F 71% 29.62 in 6.2 mi South 10.4 mph - N/A   Scattered Clouds
11:45 PM 50.0 °F - 42.8 °F 76% 29.62 in 4.3 mi SW 10.4 mph 21.9 mph N/A Rain Light Rain